Date,TemperatureHighF,TemperatureAvgF,TemperatureLowF,DewpointHighF,DewpointAvgF,DewpointLowF,HumidityHigh,HumidityAvg,HumidityLow,PressureMaxIn,PressureMinIn,WindSpeedMaxMPH,WindSpeedAvgMPH,GustSpeedMaxMPH,PrecipitationSumIn
2013-1-1,37,31,24,37,31,24,100,100,100,30.24,30.01,15,2,15,0.00
2013-1-2,34,26,20,33,22,16,100,86,57,30.24,30.15,12,2,13,0.00
2013-1-3,44,31,18,38,23,17,100,75,48,30.42,30.24,10,2,14,0.00
2013-1-4,47,34,20,33,22,16,100,66,40,30.45,30.30,16,4,17,0.00
2013-1-5,42,35,26,33,28,18,95,75,66,30.30,30.15,22,5,23,0.00
2013-1-6,47,33,23,31,23,14,100,71,37,30.36,30.21,15,3,16,0.00
2013-1-7,52,37,22,29,23,15,90,60,37,30.33,30.12,20,4,21,0.00
2013-1-8,58,42,28,48,33,20,100,71,48,30.21,30.03,16,3,19,0.18
2013-1-9,54,50,46,51,44,37,100,83,55,30.33,30.21,22,7,30,0.08
2013-1-10,58,50,46,58,50,39,100,97,63,30.21,29.83,27,9,28,0.04
2013-1-11,66,56,44,49,45,41,100,71,44,29.89,29.77,30,9,32,0.00
2013-1-12,58,44,29,52,38,29,100,83,44,29.95,29.80,31,8,33,0.36
2013-1-13,29,23,16,29,19,14,100,86,69,30.33,29.95,12,9,17,0.00
2013-1-14,35,23,13,21,14,9,99,71,42,30.42,30.30,19,7,20,0.00
2013-1-15,35,25,15,20,16,12,94,70,45,30.30,30.12,16,4,17,0.00
2013-1-16,43,28,15,26,17,13,100,68,41,30.18,30.09,19,3,20,0.00
2013-1-17,49,34,23,33,23,15,84,65,42,30.48,30.18,19,3,20,0.00
2013-1-18,56,40,23,33,26,20,100,61,34,30.48,30.18,24,6,26,0.00
2013-1-19,63,48,36,36,30,24,81,52,34,30.21,30.09,23,7,26,0.00
2013-1-20,61,44,29,36,28,16,88,56,34,30.27,30.12,22,5,23,0.00
2013-1-21,40,29,21,18,14,12,67,54,40,30.36,30.24,14,7,20,0.00
2013-1-22,47,33,21,27,19,12,71,57,42,30.30,30.18,16,4,17,0.00
2013-1-23,62,43,26,43,33,18,94,69,46,30.27,30.12,19,4,20,0.00
2013-1-24,44,38,33,33,21,17,66,50,42,30.30,30.09,22,8,23,0.00
2013-1-25,50,38,30,39,30,23,100,75,48,30.24,30.09,14,2,14,0.00
2013-1-26,62,46,34,31,26,20,79,48,25,30.24,30.12,19,6,20,0.00
2013-1-27,60,54,47,59,50,30,100,86,50,30.12,29.95,26,9,27,0.00
2013-1-28,72,66,59,64,62,58,100,86,63,30.01,29.86,34,12,35,0.00
2013-1-29,68,60,47,66,59,46,100,94,83,29.86,29.50,32,9,33,1.85
2013-1-30,47,32,22,47,28,17,100,86,70,30.03,29.53,32,12,34,0.04
2013-1-31,48,27,19,30,20,7,99,77,46,30.42,30.00,24,5,26,0.00